TimeCDT,TemperatureF,Dew PointF,Humidity,Sea Level PressureIn,VisibilityMPH,Wind Direction,Wind SpeedMPH,Gust SpeedMPH,PrecipitationIn,Events,Conditions,WindDirDegrees,DateUTC
12:15 AM,53.6,51.8,94,29.22,5.0,Calm,Calm,-,0.02,Rain,Rain,0,2012-10-18 05:15:00
12:35 AM,53.6,51.8,94,29.22,7.0,Calm,Calm,-,0.05,Rain,Light Rain,0,2012-10-18 05:35:00
12:55 AM,53.6,51.8,94,29.21,7.0,Calm,Calm,-,0.08,Rain,Rain,0,2012-10-18 05:55:00
1:15 AM,53.6,51.8,94,29.19,7.0,Calm,Calm,-,0.02,Rain,Light Rain,0,2012-10-18 06:15:00
1:35 AM,53.6,51.8,94,29.19,7.0,Calm,Calm,-,0.02,,Light Drizzle,0,2012-10-18 06:35:00
1:55 AM,53.6,50.0,88,29.19,10.0,Calm,Calm,-,0.02,,Drizzle,0,2012-10-18 06:55:00
2:15 AM,53.6,50.0,88,29.19,5.0,WSW,6.9,-,0.02,,Drizzle,240,2012-10-18 07:15:00
2:35 AM,51.8,50.0,94,29.21,4.0,SW,10.4,-,0.03,,Light Drizzle,220,2012-10-18 07:35:00
2:55 AM,50.0,46.4,87,29.21,4.0,WSW,13.8,20.7,0.06,,Drizzle,250,2012-10-18 07:55:00
3:15 AM,50.0,46.4,87,29.21,5.0,WSW,11.5,-,N/A,Rain,Light Rain,250,2012-10-18 08:15:00
3:35 AM,50.0,46.4,87,29.21,7.0,WSW,8.1,-,0.02,Rain,Light Rain,250,2012-10-18 08:35:00
3:55 AM,50.0,46.4,87,29.20,10.0,WSW,6.9,-,0.02,,Light Drizzle,250,2012-10-18 08:55:00
4:15 AM,50.0,46.4,87,29.20,10.0,SW,6.9,-,N/A,,Overcast,220,2012-10-18 09:15:00
4:35 AM,48.2,44.6,87,29.21,10.0,SW,6.9,-,N/A,,Overcast,230,2012-10-18 09:35:00
4:55 AM,48.2,44.6,87,29.20,10.0,WSW,5.8,-,N/A,,Overcast,240,2012-10-18 09:55:00
5:15 AM,48.2,44.6,87,29.20,10.0,SW,5.8,-,N/A,,Overcast,230,2012-10-18 10:15:00
5:35 AM,48.2,44.6,87,29.20,10.0,SW,4.6,-,N/A,,Overcast,220,2012-10-18 10:35:00
5:55 AM,48.2,44.6,87,29.21,10.0,SW,5.8,-,N/A,,Overcast,220,2012-10-18 10:55:00
6:15 AM,48.2,44.6,87,29.21,10.0,SSW,5.8,-,N/A,,Overcast,200,2012-10-18 11:15:00
6:35 AM,48.2,44.6,87,29.21,10.0,SSW,4.6,-,N/A,,Overcast,210,2012-10-18 11:35:00
6:55 AM,46.4,44.6,93,29.22,10.0,SSW,4.6,-,N/A,,Overcast,210,2012-10-18 11:55:00
7:15 AM,46.4,44.6,93,29.22,10.0,SSW,6.9,-,N/A,,Overcast,210,2012-10-18 12:15:00
7:55 AM,46.4,44.6,93,29.23,10.0,SW,6.9,-,N/A,,Overcast,230,2012-10-18 12:55:00
8:15 AM,46.4,42.8,87,29.23,10.0,SW,3.5,-,N/A,,Overcast,230,2012-10-18 13:15:00
8:35 AM,46.4,44.6,93,29.24,10.0,South,4.6,-,N/A,,Overcast,190,2012-10-18 13:35:00
8:55 AM,46.4,44.6,93,29.24,10.0,South,6.9,-,N/A,,Overcast,190,2012-10-18 13:55:00
9:15 AM,46.4,44.6,93,29.25,10.0,SSW,6.9,-,N/A,,Overcast,200,2012-10-18 14:15:00
9:35 AM,46.4,44.6,93,29.25,10.0,SSW,4.6,-,N/A,,Overcast,200,2012-10-18 14:35:00
9:55 AM,46.4,44.6,93,29.25,10.0,South,8.1,-,N/A,,Overcast,190,2012-10-18 14:55:00
10:15 AM,46.4,44.6,93,29.25,10.0,South,5.8,-,N/A,,Overcast,190,2012-10-18 15:15:00
10:35 AM,46.4,42.8,87,29.26,10.0,South,6.9,-,N/A,,Overcast,180,2012-10-18 15:35:00
10:55 AM,48.2,44.6,87,29.26,10.0,South,4.6,-,N/A,,Overcast,170,2012-10-18 15:55:00
11:15 AM,50.0,44.6,82,29.26,10.0,South,8.1,-,N/A,,Overcast,190,2012-10-18 16:15:00
11:35 AM,50.0,42.8,76,29.26,10.0,South,9.2,-,N/A,,Overcast,190,2012-10-18 16:35:00
11:55 AM,48.2,42.8,82,29.27,10.0,SSW,9.2,-,N/A,,Overcast,200,2012-10-18 16:55:00
12:15 PM,50.0,42.8,76,29.27,10.0,SSW,8.1,-,N/A,,Overcast,200,2012-10-18 17:15:00
12:35 PM,50.0,42.8,76,29.27,10.0,South,8.1,-,N/A,,Overcast,180,2012-10-18 17:35:00
12:55 PM,50.0,41.0,71,29.28,10.0,South,8.1,-,N/A,,Overcast,190,2012-10-18 17:55:00
1:15 PM,50.0,41.0,71,29.28,10.0,South,11.5,-,N/A,,Overcast,190,2012-10-18 18:15:00
1:35 PM,46.4,42.8,87,29.28,10.0,South,8.1,-,N/A,,Overcast,180,2012-10-18 18:35:00
1:55 PM,46.4,42.8,87,29.28,7.0,South,6.9,-,N/A,Rain,Light Rain,180,2012-10-18 18:55:00
2:15 PM,48.2,44.6,87,29.29,10.0,South,5.8,-,N/A,,Overcast,180,2012-10-18 19:15:00
2:35 PM,46.4,42.8,87,29.30,3.0,South,12.7,18.4,0.05,Rain,Rain,190,2012-10-18 19:35:00
2:55 PM,46.4,42.8,87,29.30,7.0,South,8.1,-,0.07,Rain,Light Rain,190,2012-10-18 19:55:00
3:15 PM,46.4,44.6,93,29.31,10.0,South,6.9,-,N/A,,Overcast,190,2012-10-18 20:15:00
3:35 PM,46.4,42.8,87,29.32,10.0,South,12.7,16.1,N/A,,Overcast,190,2012-10-18 20:35:00
3:55 PM,46.4,42.8,87,29.33,10.0,South,6.9,-,N/A,,Overcast,180,2012-10-18 20:55:00
4:15 PM,46.4,42.8,87,29.33,10.0,South,10.4,-,N/A,,Light Drizzle,180,2012-10-18 21:15:00
4:35 PM,46.4,42.8,87,29.34,10.0,South,8.1,-,N/A,,Overcast,180,2012-10-18 21:35:00
4:55 PM,46.4,42.8,87,29.35,10.0,South,5.8,-,N/A,Rain,Light Rain,170,2012-10-18 21:55:00
5:15 PM,46.4,41.0,81,29.36,10.0,South,8.1,-,N/A,,Light Drizzle,170,2012-10-18 22:15:00
5:35 PM,46.4,41.0,81,29.37,10.0,South,5.8,-,N/A,,Overcast,170,2012-10-18 22:35:00
5:55 PM,46.4,41.0,81,29.37,10.0,SSE,5.8,-,N/A,,Overcast,160,2012-10-18 22:55:00
6:15 PM,44.6,41.0,87,29.38,10.0,SSE,8.1,-,N/A,,Light Drizzle,160,2012-10-18 23:15:00
6:35 PM,44.6,41.0,87,29.38,10.0,SE,6.9,-,N/A,Rain,Light Rain,140,2012-10-18 23:35:00
6:55 PM,44.6,41.0,87,29.39,10.0,SE,6.9,-,N/A,Rain,Rain,140,2012-10-18 23:55:00
7:15 PM,44.6,41.0,87,29.39,10.0,SE,5.8,-,N/A,,Light Drizzle,140,2012-10-19 00:15:00
7:35 PM,44.6,41.0,87,29.40,10.0,SE,5.8,-,N/A,,Overcast,140,2012-10-19 00:35:00
7:55 PM,44.6,41.0,87,29.40,10.0,SE,5.8,-,N/A,,Overcast,140,2012-10-19 00:55:00
8:15 PM,44.6,41.0,87,29.40,10.0,SE,6.9,-,N/A,,Overcast,130,2012-10-19 01:15:00
8:35 PM,42.8,41.0,93,29.41,10.0,SE,4.6,-,N/A,,Overcast,130,2012-10-19 01:35:00
8:55 PM,44.6,41.0,87,29.41,10.0,SE,5.8,-,N/A,,Overcast,140,2012-10-19 01:55:00
9:15 PM,44.6,41.0,87,29.41,10.0,SE,5.8,-,N/A,,Overcast,140,2012-10-19 02:15:00
9:35 PM,44.6,41.0,87,29.41,10.0,SE,5.8,-,N/A,,Overcast,130,2012-10-19 02:35:00
9:55 PM,44.6,41.0,87,29.42,10.0,SE,4.6,-,N/A,,Overcast,130,2012-10-19 02:55:00
10:15 PM,44.6,41.0,87,29.42,10.0,SE,5.8,-,N/A,,Overcast,130,2012-10-19 03:15:00
10:35 PM,44.6,41.0,87,29.42,10.0,ESE,3.5,-,N/A,,Overcast,120,2012-10-19 03:35:00
10:55 PM,44.6,41.0,87,29.42,10.0,ESE,4.6,-,N/A,,Overcast,110,2012-10-19 03:55:00